sat.trackr.live / text

‹ back to catalog

STARLINK-35054

NORAD 65383 · 2025-191E

PAYLOAD ACTIVE UNKNOWN

§ Identity

Operator
Country
US
Launch date
2025-08-30
Launch site
AFWTR
Launch vehicle
Mass (kg)
RCS (m²)

Purposes: comms

External: N2YO · Heavens-Above · Gunter

§ Orbital elements

Epoch: 2026-09-20T13:11:54.358080Z

Period
93.91 min
Inclination
97.2826°
Eccentricity
0.0002159
Mean motion
15.33457152 rev/d
Perigee alt
464.0 km
Apogee alt
467.0 km
Semi-major
6,843.6 km
B*
4.1235e-4
RAAN
129.5362°
Arg perigee
88.5678°
Mean anomaly
271.5812°
Rev number
5,964

§ Raw data

STARLINK-350541 65383U 25191E   26263.54993470  .00013266  00000+0  41235-3 0  99982 65383  97.2826 129.5362 0002159  88.5678 271.5812 15.33457152 59644

JSON: /api/v1/satellites/65383 · /tle

For live sub-satellite position, see the globe view (requires WebGL).

§ Visibility from observer

Set your observer location to see the next 7 days of passes ≥ 10°. The values pass through the URL so the page stays shareable.

No JS? Fill the form by hand. The geolocation button needs JavaScript.